Location: Asheville, NC
(35.6000°N, 82.5500°W)
Time: 20:20:42
(UTC-04:00)

BEESAT 3 - Pass Details

Date: 18 March 2018
Orbit: 499 x 517 km, 64.9° (Epoch: 20 June)

Event Time Altitude Azimuth Distance (km) Brightness Sun altitude
Rises 20:16:59 0° 259° (WSW) 2,623 ? -8.3°
Reaches altitude 10° 20:20:39 10° 295° (WNW) 1,744 ? -9.0°
Maximum altitude 20:21:52 11° 313° (NW) 1,670 ? -9.3°
Drops below altitude 10° 20:23:06 10° 332° (NNW) 1,748 ? -9.5°
Sets 20:26:48 0° 8° (N) 2,641 ? -10.3°
